Location: De Platvoet
(52.2667°N, 6.1667°E)
Time: 08:02:10
(UTC+00:00)

Cosmos 2151 - Pass Details

Date: 15 May 2026
Orbit: 556 x 575 km, 82.5° (Epoch: 5 June)

Event Time Altitude Azimuth Distance (km) Brightness Sun altitude
Rises 20:48:41 0° 346° (NNW) 2,777 7.7 -10.4°
Reaches altitude 10° 20:50:54 10° 343° (NNW) 1,872 6.8 -10.6°
Maximum altitude 20:54:57 60° 264° (W) 647 3.3 -11.0°
Drops below altitude 10° 20:58:57 10° 184° (S) 1,845 5.1 -11.4°
Enters shadow 20:59:04 - 184° (S) 1,888 5.1 -11.4°
